Location: Gallinara
(44.0333°N, 8.2333°E)
Time: 01:42:35
(UTC+00:00)

Cosmos 1975 - Pass Details

Date: 25 September 2020
Orbit: 540 x 563 km, 82.5° (Epoch: 29 October)

Event Time Altitude Azimuth Distance (km) Brightness Sun altitude
Rises 04:18:41 0° 352° (N) 2,730 6.4 -11.5°
Reaches altitude 10° 04:20:52 10° 354° (N) 1,828 5.5 -11.1°
Maximum altitude 04:24:53 78° 80° (E) 563 3.0 -10.4°
Drops below altitude 10° 04:28:51 10° 168° (SSE) 1,802 5.5 -9.6°
Sets 04:30:59 0° 170° (S) 2,687 6.4 -9.3°
